Weather History for Dayton Wright, OH

Change the Weather History Date:

Friday, December 7, 2012

  Actual Average (KFFO) Record (KFFO)
Temperature  
Mean Temperature 48 °F -  
Max Temperature 53 °F 42 °F 68 °F (1998)
Min Temperature 44 °F 28 °F 12 °F (2005)
Degree Days  
Heating Degree Days 16    
Moisture  
Dew Point 48 °F    
Average Humidity 99    
Maximum Humidity 100    
Minimum Humidity 93    
Precipitation  
Precipitation 0.56 in - - ()
Sea Level Pressure  
Sea Level Pressure 29.92 in    
Wind  
Wind Speed 4 mph (SE)    
Max Wind Speed 13 mph    
Max Gust Speed 20 mph    
Visibility 3 miles    
Events Fog , Rain    
Averages and records for this station are not official NWS values.
T = Trace of Precipitation, MM = Missing Value Source: NWS Daily Summary

Daily Weather History Graph

Daily Weather History Graph

Search for Another Location

Airport:

Trip Planner

Search our weather history database for the weather conditions in past years. The results will help you decide how hot, cold, wet, or windy it might be!

Date:

Astronomy

Dec. 07, 2012 Rise Set
Actual Time 7:44 AM EST 5:12 PM EST
Civil Twilight 7:14 AM EST 5:42 PM EST
Nautical Twilight 6:40 AM EST 6:16 PM EST
Astronomical Twilight 6:08 AM EST 6:49 PM EST
Moon 1:03 AM EST (12/7) 1:08 PM EST (12/7)
Length of Visible Light 10h 28m
Length of Day
9h 28m
Last Quarter, 39% of the Moon is Illuminated
Dec 7
Last Quarter
Dec 13
New
Dec 20
First Quarter
Dec 28
Full
Jan 4
Last Quarter

Hourly Weather History & Observations

Time (EST) Temp. Windchill Dew Point Humidity Pressure Visibility Wind Dir Wind Speed Gust Speed Precip Events Conditions
12:12 AM 44.6 °F - 44.6 °F 100% 29.97 in 4.0 mi Calm Calm - 0.01 in Rain Light Rain
12:22 AM 44.6 °F - 44.6 °F 100% 29.97 in 1.8 mi Calm Calm - 0.04 in Rain Rain
12:38 AM 44.6 °F 43.1 °F 44.6 °F 100% 29.97 in 2.0 mi South 3.5 mph - 0.09 in Rain Rain
12:53 AM 45.0 °F 43.5 °F 45.0 °F 100% 29.98 in 2.5 mi South 3.5 mph - 0.11 in Rain Light Rain
1:23 AM 44.6 °F 41.4 °F 44.6 °F 100% 29.97 in 2.5 mi South 5.8 mph - 0.02 in Rain Light Rain
1:42 AM 44.6 °F 42.2 °F 44.6 °F 100% 29.96 in 1.8 mi SSW 4.6 mph - 0.05 in Rain Light Rain
1:44 AM 44.6 °F 42.2 °F 44.6 °F 100% 29.96 in 2.0 mi SSW 4.6 mph - 0.05 in Rain Light Rain
1:53 AM 46.0 °F 43.9 °F 45.0 °F 96% 29.98 in 2.5 mi SSW 4.6 mph - 0.06 in Rain Light Rain
2:05 AM 46.4 °F 44.3 °F 46.4 °F 100% 29.96 in 2.0 mi South 4.6 mph - 0.00 in Rain Light Rain
2:53 AM 46.0 °F - 46.0 °F 100% 29.98 in 2.5 mi Calm Calm - 0.01 in   Overcast
3:53 AM 46.9 °F - 46.0 °F 97% 29.97 in 2.0 mi SW 4.6 mph - N/A   Overcast
4:00 AM 46.4 °F 42.9 °F 46.4 °F 100% 29.96 in 1.8 mi SSW 6.9 mph - N/A   Overcast
4:25 AM 46.4 °F 45.2 °F 46.4 °F 100% 29.96 in 0.8 mi SSW 3.5 mph - N/A   Mist
4:39 AM 46.4 °F 45.2 °F 46.4 °F 100% 29.96 in 0.5 mi SSW 3.5 mph - N/A Fog Fog
4:53 AM 46.9 °F - 46.9 °F 100% 29.96 in 0.5 mi Calm Calm - N/A Fog Fog
5:09 AM 46.4 °F 44.3 °F 46.4 °F 100% 29.96 in 0.8 mi SW 4.6 mph - N/A   Mist
5:29 AM 46.4 °F 44.3 °F 46.4 °F 100% 29.96 in 0.5 mi SSW 4.6 mph - N/A Fog Fog
5:53 AM 46.9 °F - 46.9 °F 100% 29.98 in 0.5 mi Calm Calm - N/A Fog Fog
6:53 AM 46.9 °F - 46.9 °F 100% 29.97 in 0.2 mi Calm Calm - N/A Fog Fog
7:53 AM 46.9 °F - - N/A% 29.98 in 0.2 mi South 4.6 mph - N/A Fog Fog
8:53 AM 48.0 °F - 48.0 °F 100% 29.99 in 0.2 mi Calm Calm - N/A Fog Fog
9:53 AM 48.9 °F - 48.0 °F 97% 30.00 in 0.5 mi Calm Calm - N/A Fog Fog
10:08 AM 48.2 °F - 48.2 °F 100% 29.98 in 0.8 mi Calm Calm - N/A   Overcast
10:13 AM 48.2 °F - 48.2 °F 100% 29.98 in 1.2 mi Calm Calm - 0.00 in Rain Light Rain
10:19 AM 48.2 °F - 48.2 °F 100% 29.98 in 0.8 mi East 3.5 mph - 0.00 in   Overcast
10:28 AM 48.2 °F - 48.2 °F 100% 29.98 in 0.5 mi Calm Calm - 0.00 in Fog Fog
10:36 AM 48.2 °F - 48.2 °F 100% 29.99 in 1.0 mi North 3.5 mph - 0.00 in   Overcast
10:53 AM 48.9 °F - 48.0 °F 97% 29.99 in 1.8 mi NE 3.5 mph - 0.00 in Rain Light Rain
11:11 AM 48.2 °F - 48.2 °F 100% 29.98 in 2.0 mi Calm Calm - 0.01 in Rain Light Rain
11:18 AM 48.2 °F - 48.2 °F 100% 29.97 in 2.0 mi NE 3.5 mph - 0.01 in Rain Light Rain
11:45 AM 48.2 °F - 48.2 °F 100% 29.96 in 2.0 mi ENE 4.6 mph - 0.02 in Rain Light Rain
11:53 AM 48.9 °F - 48.9 °F 100% 29.96 in 2.5 mi ENE 4.6 mph - 0.02 in Rain Light Rain
12:12 PM 48.2 °F - 48.2 °F 100% 29.95 in 3.0 mi NE 3.5 mph - 0.01 in Rain Light Rain
12:22 PM 48.2 °F - 48.2 °F 100% 29.94 in 2.5 mi ENE 4.6 mph - 0.02 in Rain Light Rain
12:28 PM 48.2 °F - 48.2 °F 100% 29.94 in 3.0 mi ENE 3.5 mph - 0.03 in Rain Light Rain
12:53 PM 48.9 °F - 48.0 °F 97% 29.94 in 4.0 mi East 3.5 mph - 0.04 in Rain Light Rain
1:08 PM 48.2 °F - 48.2 °F 100% 29.92 in 6.0 mi East 4.6 mph - 0.01 in Rain Light Rain
1:15 PM 48.2 °F - 48.2 °F 100% 29.92 in 6.0 mi ENE 5.8 mph - 0.01 in Rain Light Rain
1:31 PM 48.2 °F - 48.2 °F 100% 29.91 in 6.0 mi East 3.5 mph - 0.02 in Rain Light Rain
1:53 PM 48.9 °F - 46.9 °F 93% 29.91 in 5.0 mi ENE 6.9 mph - 0.03 in Rain Light Rain
2:49 PM 48.2 °F - 48.2 °F 100% 29.87 in 7.0 mi East 6.9 mph - 0.00 in   Overcast
2:53 PM 48.9 °F - 48.0 °F 97% 29.88 in 7.0 mi East 6.9 mph - 0.00 in   Overcast
3:04 PM 48.2 °F - 48.2 °F 100% 29.87 in 7.0 mi East 8.1 mph - N/A   Overcast
3:21 PM 48.2 °F - 48.2 °F 100% 29.88 in 5.0 mi East 4.6 mph - 0.00 in Rain Light Rain
3:35 PM 48.2 °F - 48.2 °F 100% 29.88 in 2.0 mi East 4.6 mph - 0.04 in Rain Rain
3:49 PM 48.2 °F - 48.2 °F 100% 29.87 in 3.0 mi East 6.9 mph - 0.05 in Rain Light Rain
3:53 PM 48.9 °F - 48.0 °F 97% 29.88 in 3.0 mi East 5.8 mph - 0.06 in Rain Light Rain
4:00 PM 48.2 °F - 48.2 °F 100% 29.87 in 4.0 mi East 5.8 mph - 0.00 in Rain Light Rain
4:22 PM 48.2 °F - 48.2 °F 100% 29.89 in 2.5 mi Calm Calm - 0.03 in Rain Rain
4:33 PM 48.2 °F - 48.2 °F 100% 29.88 in 1.8 mi ESE 4.6 mph - 0.07 in Rain Rain
4:39 PM 48.2 °F - 48.2 °F 100% 29.89 in 3.0 mi East 3.5 mph - 0.08 in Rain Light Rain
4:53 PM 48.9 °F - 48.0 °F 97% 29.88 in 2.5 mi ENE 6.9 mph - 0.12 in Rain Rain
5:04 PM 48.2 °F - 48.2 °F 100% 29.86 in 3.0 mi East 6.9 mph - 0.01 in Rain Light Rain
5:50 PM 48.2 °F - 48.2 °F 100% 29.86 in 6.0 mi East 4.6 mph - 0.01 in Rain Light Rain
5:53 PM 48.9 °F - 48.9 °F 100% 29.87 in 6.0 mi East 4.6 mph - 0.01 in Rain Light Rain
6:29 PM 50.0 °F - 48.2 °F 94% 29.87 in 4.0 mi Calm Calm - 0.07 in Rain Rain
6:53 PM 50.0 °F - 48.9 °F 96% 29.86 in 7.0 mi ESE 4.6 mph - 0.10 in Rain Light Rain
7:00 PM 50.0 °F - 48.2 °F 94% 29.86 in 8.0 mi SE 4.6 mph - 0.00 in Rain Light Rain
8:02 PM 51.8 °F - 50.0 °F 94% 29.86 in 8.0 mi SSE 5.8 mph - N/A   Overcast
8:53 PM 51.1 °F - 51.1 °F 100% 29.85 in 4.0 mi South 5.8 mph - N/A   Overcast
9:04 PM 51.8 °F - 51.8 °F 100% 29.84 in 2.0 mi SSE 6.9 mph - N/A   Overcast
9:12 PM 51.8 °F - 51.8 °F 100% 29.84 in 1.5 mi SSE 9.2 mph - N/A   Overcast
9:42 PM 51.8 °F - 51.8 °F 100% 29.84 in 3.0 mi South 8.1 mph - N/A   Overcast
9:53 PM 52.0 °F - 52.0 °F 100% 29.84 in 3.0 mi South 8.1 mph - N/A   Overcast
10:03 PM 51.8 °F - 51.8 °F 100% 29.84 in 2.5 mi SSW 8.1 mph - N/A   Overcast
10:10 PM 51.8 °F - 51.8 °F 100% 29.83 in 3.0 mi South 8.1 mph - N/A   Overcast
10:35 PM 51.8 °F - 51.8 °F 100% 29.84 in 2.5 mi SW 6.9 mph - 0.00 in Rain Light Rain
10:44 PM 53.6 °F - 51.8 °F 94% 29.84 in 4.0 mi SSW 12.7 mph 19.6 mph 0.01 in   Overcast
10:58 PM 53.6 °F - 51.8 °F 94% 29.84 in 7.0 mi SW 12.7 mph - N/A   Overcast
11:30 PM 53.6 °F - 51.8 °F 94% 29.84 in 7.0 mi SW 10.4 mph - N/A   Overcast
11:53 PM 53.1 °F - 52.0 °F 96% 29.84 in 8.0 mi SW 11.5 mph - N/A   Overcast